RH
7 9 8 8 8 8 8 8 14 20 26 40 51 58 75 92 92 87 89 86 80 79 77 82 90 83 75 75 74 78 85 86 85 90 98 96 89 82 77 78 69 53 49 44 33 27 24 26 29 32 36 39 41 37 31 33 30 22 21 22 19 20 25
7 8 8 11 16 20 17 10 10 14 16 26 37 46 68 89 93 92 92 87 82 82 79 82 91 86 80 79 76 80 88 90 89 93 100 96 88 80 75 72 64 53 47 38 29 25 24 28 32 35 40 42 43 39 34 34 29 21 22 23 20 20 23
7 9 9 10 20 30 29 20 12 11 14 20 29 52 82 95 95 96 96 91 87 85 83 87 94 90 86 83 80 86 94 92 92 97 98 90 87 89 80 66 59 53 44 34 28 27 28 32 35 39 44 46 45 40 34 31 26 23 22 22 22 20 20
9 10 11 9 15 26 33 32 22 13 12 18 33 61 88 100 99 94 91 94 92 91 93 93 94 93 91 89 90 94 94 93 94 93 92 87 88 93 84 66 58 50 40 33 30 31 33 36 39 45 48 48 47 42 34 28 23 24 24 21 21 20 21
11 14 15 12 13 18 25 32 30 23 16 18 43 73 85 94 102 94 87 89 90 93 99 97 93 90 88 89 92 90 85 87 87 82 85 88 86 84 76 66 58 48 40 35 34 35 37 40 45 49 51 51 49 43 35 28 24 25 25 23 22 22 24
13 15 16 19 24 23 23 26 26 26 24 23 44 78 91 93 99 100 94 89 87 92 98 98 95 92 88 89 90 85 78 79 78 76 83 90 90 84 73 65 57 47 41 37 36 38 40 44 49 52 54 52 50 44 36 29 27 27 27 26 25 25 26
13 13 16 22 27 26 26 33 34 27 26 29 36 59 84 96 100 101 98 92 89 92 96 97 96 92 87 88 94 91 84 83 83 82 85 89 93 88 75 67 60 50 44 41 40 41 44 47 50 53 55 53 50 45 36 30 29 29 29 29 30 30 28
14 12 14 18 20 22 24 36 48 44 32 29 33 40 57 81 96 97 95 92 89 89 93 97 97 91 85 88 97 97 93 92 88 82 84 90 93 86 75 70 62 53 48 46 46 46 47 49 51 54 57 55 51 44 36 32 30 30 31 33 36 35 31
17 15 16 20 20 20 20 23 38 54 52 35 29 36 43 56 76 88 92 91 90 88 86 89 95 93 89 90 95 97 96 90 78 72 78 86 86 80 74 69 61 54 50 49 49 48 48 50 53 56 59 57 51 44 37 33 32 33 34 36 38 36 34
22 21 22 25 23 18 21 23 23 43 65 54 32 32 41 45 53 70 88 91 91 93 89 86 88 88 88 88 91 97 94 81 71 70 73 76 78 76 71 64 58 53 50 49 50 50 51 54 56 59 60 56 52 46 39 35 34 34 35 38 40 38 36
27 26 25 26 25 20 20 25 25 35 56 62 49 38 41 46 42 48 71 83 82 86 88 85 83 84 86 86 93 98 89 75 71 71 74 78 76 72 68 61 56 54 53 52 52 53 56 56 58 63 63 57 53 47 40 37 37 36 40 45 46 43 40
30 26 26 24 25 25 22 25 39 50 49 47 50 46 41 46 41 34 47 66 73 75 80 84 86 90 92 90 96 100 88 78 78 80 84 86 77 68 68 64 58 57 58 56 53 54 58 59 62 68 67 60 55 49 41 38 38 39 44 50 52 50 45
29 26 26 25 24 25 24 25 35 48 54 55 56 51 43 43 43 36 35 48 65 72 77 86 92 97 100 95 95 98 89 79 79 83 87 88 78 72 73 69 63 63 63 61 60 60 63 65 66 68 66 60 57 52 44 40 40 41 44 50 56 55 49
27 25 24 26 28 26 27 30 30 34 56 80 78 59 43 37 39 41 33 36 57 73 76 82 88 93 95 91 92 97 92 81 80 83 88 88 80 75 75 71 69 71 70 68 68 68 68 68 68 69 68 64 58 52 46 43 42 42 44 51 56 53 48
22 24 26 28 32 34 33 35 38 37 47 69 76 63 52 44 37 37 34 33 50 67 75 78 81 84 85 86 91 96 92 87 86 88 91 89 80 77 77 73 73 76 73 71 70 69 69 70 71 72 71 66 59 50 47 46 44 44 49 53 53 52 49
21 24 29 32 33 37 38 41 54 61 57 56 54 51 58 62 50 42 44 45 48 55 63 70 75 77 79 83 89 93 92 91 91 92 94 89 79 78 81 76 75 75 71 70 70 70 74 77 78 77 71 64 58 52 49 49 48 48 51 53 53 53 52
20 23 28 34 36 36 39 51 72 85 81 71 57 48 58 72 68 59 58 59 60 59 59 64 68 71 75 80 85 91 95 93 88 85 90 90 84 84 85 78 74 73 72 71 74 78 81 82 81 77 69 63 58 55 55 54 52 51 51 52 52 53 53
17 19 23 30 37 40 42 54 76 90 90 83 71 64 70 78 78 71 61 56 62 67 66 70 74 73 75 78 80 86 93 92 87 83 88 94 91 86 85 80 72 69 69 74 82 86 82 79 78 73 68 64 60 57 57 58 56 54 54 53 52 53 54
16 16 19 22 30 38 43 51 70 89 97 93 86 83 82 81 78 73 65 57 60 71 77 80 80 78 79 79 77 79 83 86 89 91 93 94 90 81 74 73 70 68 68 77 90 92 81 76 77 72 67 64 59 57 58 60 61 60 59 57 55 56 56
18 16 17 18 21 28 37 46 58 74 88 94 96 98 94 89 84 80 75 66 64 75 87 88 81 75 77 80 78 74 73 78 86 92 94 93 90 80 71 72 77 76 75 82 92 89 76 72 76 76 75 71 65 63 66 66 67 66 65 64 62 61 60
20 19 19 19 19 20 26 38 49 58 68 73 79 86 91 94 91 87 86 81 75 77 82 84 84 80 77 80 82 75 70 76 83 88 94 98 92 80 75 82 88 87 86 90 93 89 81 79 83 86 89 88 80 76 79 78 75 74 74 73 71 67 63
23 23 23 23 24 21 20 26 37 47 54 56 57 59 65 74 76 76 82 87 86 82 77 79 86 89 85 84 86 80 72 75 81 84 91 96 91 82 79 84 90 93 95 93 90 90 86 81 82 84 85 86 85 83 84 83 81 82 81 79 76 71 66
25 25 26 26 27 26 23 22 27 36 44 47 47 44 43 47 49 52 61 70 74 76 77 78 83 89 89 84 82 81 78 78 81 82 85 89 90 89 85 86 93 97 96 92 87 87 86 80 80 83 83 87 92 94 89 83 81 84 86 85 82 77 75
28 29 30 30 29 28 27 24 23 27 33 38 41 39 35 33 32 33 38 44 50 57 64 71 77 85 88 84 81 81 80 82 82 82 87 90 90 90 86 86 94 96 92 89 84 83 88 87 85 86 86 88 93 93 88 82 78 82 88 91 87 82 83
33 34 35 35 33 31 30 28 25 23 25 29 33 35 32 28 25 24 25 28 33 39 49 63 74 77 80 82 84 81 78 79 77 77 87 95 93 90 83 79 88 94 92 90 86 84 92 93 88 86 85 84 83 84 84 81 78 82 85 84 82 83 88
35 37 38 38 36 34 32 31 29 26 23 23 25 28 30 27 23 21 20 21 23 25 38 62 75 75 76 81 84 82 78 79 79 82 92 95 88 82 73 68 75 82 84 87 88 90 95 94 90 88 86 83 81 80 82 83 82 82 79 77 82 86 91
36 36 38 39 38 36 32 30 30 29 26 24 22 22 24 25 23 21 18 19 20 18 27 47 61 65 72 80 83 83 80 78 81 90 96 92 83 78 70 64 67 70 73 77 82 90 98 97 94 94 90 86 82 80 84 88 88 84 79 79 85 85 86
38 36 36 37 38 36 31 28 27 27 27 25 23 22 20 20 20 20 18 18 19 18 21 29 34 42 60 75 80 83 85 82 82 88 94 95 91 86 77 69 67 68 69 72 75 85 97 100 100 100 96 89 85 85 86 88 87 84 80 80 83 83 83
40 38 36 35 35 35 31 27 26 26 26 25 24 23 21 19 18 18 18 17 16 18 21 24 28 41 62 75 75 78 85 87 86 89 94 97 95 92 86 81 79 75 74 79 83 84 87 91 94 95 94 92 90 88 87 88 90 88 86 86 87 89 90
41 40 38 35 33 33 31 27 25 25 25 25 25 24 23 21 19 17 17 17 16 16 18 21 28 43 64 77 80 78 81 87 92 95 97 98 96 95 95 94 92 88 84 87 88 80 76 79 82 83 86 89 88 88 91 95 97 97 97 97 97 95 95
40 39 38 36 33 32 31 30 28 26 25 25 25 26 25 23 21 19 18 18 17 16 16 18 22 34 55 78 88 84 78 83 92 95 98 98 94 92 95 94 91 89 86 82 76 71 71 75 78 82 85 86 87 92 96 93 90 92 96 97 96 95 97
38 38 38 36 33 31 30 30 31 30 29 27 25 24 24 24 23 22 21 19 18 17 16 16 17 21 36 62 85 93 91 90 92 95 98 97 87 84 92 96 91 86 86 82 74 70 72 72 77 86 90 88 91 97 101 96 87 86 89 89 89 93 98
35 36 36 35 33 31 29 29 31 33 34 32 28 24 22 22 21 21 19 17 18 18 17 17 17 17 20 34 57 81 93 94 94 98 98 92 84 85 94 99 95 88 86 85 78 72 70 71 79 91 94 93 95 99 102 100 91 84 84 86 90 95 98
33 33 33 32 32 31 31 29 29 31 33 34 33 29 24 21 19 18 17 15 15 18 19 18 18 18 18 20 28 44 61 70 77 87 96 96 94 96 99 101 100 95 92 92 85 75 71 72 80 92 98 99 100 100 100 101 96 88 83 84 91 96 96
32 33 33 33 33 33 33 32 31 30 30 30 32 32 30 27 23 20 19 17 15 17 19 20 20 20 20 22 23 28 37 46 49 58 78 96 101 99 100 101 101 99 98 98 92 81 74 73 79 90 98 99 99 99 100 102 102 96 86 84 91 96 96
37 37 37 36 35 34 33 32 30 30 29 28 29 29 30 30 28 25 22 20 18 17 18 20 22 22 23 24 26 26 29 35 38 38 52 80 98 100 99 100 100 100 100 100 99 93 87 87 91 96 99 98 96 97 100 101 101 98 94 92 96 99 100
42 40 37 35 32 31 30 28 28 27 26 26 26 26 27 28 29 28 27 24 23 20 19 20 21 23 25 26 28 29 28 31 35 31 37 68 97 101 99 100 100 100 101 100 100 100 98 98 100 100 100 100 99 100 101 100 100 101 101 101 99 100 102
Wind_Speed
29 30 32 34 34 33 33 33 34 33 32 31 31 31 32 32 29 28 29 28 26 25 24 24 24 24 24 23 23 23 23 25 25 24 24 22 19 19 19 19 19 18 18 18 16 15 15 14 14 14 14 15 16 16 16 14 13 13 13 12 11 11 10
30 31 32 34 34 33 33 34 34 34 33 33 32 31 32 32 29 27 27 27 26 25 25 25 24 24 24 23 22 22 22 24 24 24 23 20 19 19 19 19 19 19 19 19 17 16 16 15 15 15 15 16 17 17 17 15 14 14 14 13 12 11 11
30 31 32 34 35 34 33 33 34 34 34 33 32 31 30 28 27 27 27 26 26 25 25 24 23 24 24 23 22 20 20 21 20 21 20 19 20 20 19 19 20 19 19 19 18 18 17 17 16 16 16 17 17 18 17 16 15 14 14 14 14 13 11
30 32 33 34 35 35 33 32 33 33 34 33 32 31 28 26 25 26 26 25 26 25 24 23 22 23 23 23 23 21 20 20 19 20 20 20 20 20 19 19 19 19 19 19 19 19 18 18 17 17 17 17 18 18 18 17 16 15 15 15 15 14 13
31 32 33 34 35 35 33 31 31 31 33 33 31 29 28 28 27 26 27 26 25 25 24 22 22 22 22 23 23 21 20 21 21 22 22 22 21 20 20 19 19 19 20 20 20 20 19 18 17 17 18 18 18 19 19 18 17 16 16 17 16 15 14
32 33 34 35 36 35 33 31 31 31 32 33 30 26 24 27 28 27 26 26 25 24 23 22 22 22 22 23 23 21 21 22 23 24 23 24 23 21 21 20 20 20 21 21 20 20 20 19 18 18 19 19 19 19 19 18 17 16 17 17 17 17 16
34 34 36 37 37 36 35 32 30 30 33 33 32 29 25 23 26 27 27 26 25 24 23 22 22 23 23 24 24 23 22 23 24 23 23 25 25 22 22 21 21 21 21 21 21 21 21 19 18 18 19 20 20 20 20 19 18 17 18 18 18 18 17
35 36 37 37 37 37 36 34 31 29 31 33 32 32 30 26 24 25 27 27 25 24 24 23 23 24 24 25 25 23 22 23 23 23 23 25 25 23 23 22 21 21 21 21 22 22 21 19 19 19 20 20 20 20 20 20 19 19 19 18 18 18 18
36 38 38 38 36 36 36 35 33 30 29 31 32 31 31 30 27 24 25 26 25 26 26 25 25 25 24 26 26 24 23 23 24 24 23 24 24 23 23 22 21 21 21 22 23 22 20 19 20 21 21 21 20 20 21 21 20 20 19 19 18 19 19
37 38 38 38 36 35 35 33 33 33 30 30 32 30 29 29 29 27 25 26 25 25 26 28 28 27 27 26 26 26 25 24 25 24 24 25 25 24 24 22 21 21 22 22 23 22 20 19 20 22 22 22 21 21 21 22 22 21 20 20 19 20 20
36 37 37 38 36 35 35 34 34 34 31 29 30 30 28 27 27 28 28 28 27 25 27 30 30 29 28 26 27 28 27 26 26 24 24 25 25 24 24 22 21 21 22 22 22 21 19 20 21 21 21 21 20 21 22 22 22 22 21 21 20 20 20
35 35 36 37 37 36 36 35 34 33 31 30 30 28 27 26 26 27 29 29 28 26 27 29 30 29 27 26 28 28 27 26 26 25 24 25 25 25 24 23 22 22 23 22 22 22 20 21 21 21 21 21 20 21 22 23 22 22 22 21 21 21 21
33 34 35 37 38 38 37 36 34 34 32 30 28 27 27 27 26 26 28 29 28 26 27 28 29 28 27 27 29 29 27 27 26 25 25 25 25 25 25 24 24 24 24 23 23 22 21 21 22 22 22 22 21 21 22 23 23 23 22 21 21 22 21
32 33 35 37 38 38 37 35 33 34 33 28 26 26 27 27 27 27 28 30 29 27 27 28 28 28 27 28 29 29 28 27 26 26 26 26 27 28 27 26 26 26 25 24 24 23 22 22 23 23 23 22 21 22 23 24 24 24 24 23 23 23 23
30 32 33 35 36 35 34 33 32 32 32 29 28 28 27 26 28 28 29 30 31 29 28 29 29 28 28 29 29 29 29 29 28 28 28 27 28 29 28 27 27 27 26 25 25 24 23 24 24 24 23 22 21 22 24 25 26 26 25 25 25 24 23
28 30 31 32 33 32 31 31 30 29 30 29 30 30 27 26 27 30 30 30 33 33 31 29 30 30 29 29 29 29 30 30 29 29 29 29 29 30 28 28 28 28 27 26 25 25 25 24 24 24 23 21 21 23 24 25 26 26 26 26 26 25 25
27 27 27 28 30 30 29 28 27 27 27 26 28 30 28 26 26 29 30 30 30 31 32 31 31 31 30 29 29 30 29 29 30 31 30 29 29 29 28 28 29 29 28 27 26 26 25 24 25 25 23 22 23 24 25 26 27 27 27 28 27 27 26
26 26 25 25 25 26 27 27 25 24 24 24 26 27 27 26 27 28 30 31 30 29 29 31 31 31 31 29 29 30 30 29 30 30 30 29 28 29 29 29 30 31 30 29 28 27 25 25 26 25 24 24 24 25 26 27 28 29 28 28 28 27 27
26 26 25 23 22 23 24 24 23 20 20 22 24 26 27 27 28 28 28 31 31 28 27 28 29 30 31 29 29 30 31 30 30 29 29 28 27 29 31 31 32 33 31 30 28 26 25 25 25 24 25 27 27 27 28 28 29 29 28 28 28 27 28
26 26 25 24 22 21 21 22 21 18 15 15 18 21 24 25 25 27 29 30 31 30 27 27 29 31 32 30 30 32 32 31 30 30 30 28 28 31 32 32 33 33 32 30 28 27 26 25 25 25 26 27 27 28 29 28 29 30 28 28 28 28 28
25 25 25 25 23 22 21 20 20 19 17 14 13 14 18 20 19 21 26 29 31 32 30 28 27 29 32 32 31 32 33 31 30 32 33 31 32 33 32 32 33 33 32 29 27 27 27 25 24 26 27 28 27 28 29 28 28 30 29 28 28 27 27
24 24 24 24 23 22 22 21 20 20 19 17 16 15 15 16 15 16 20 25 29 32 32 31 28 28 30 32 33 34 34 32 31 32 35 35 34 33 32 32 32 31 30 27 27 29 28 27 28 30 31 31 29 29 29 27 26 27 27 26 25 26 27
23 23 23 24 23 22 22 22 22 21 20 19 19 18 17 17 16 16 17 21 26 29 31 31 30 29 30 31 33 34 35 35 33 31 33 35 34 32 32 33 33 31 28 28 31 32 30 30 31 31 31 30 27 27 27 26 25 24 23 23 23 24 25
22 22 23 24 24 23 22 22 22 22 21 21 21 20 20 19 18 18 18 20 23 26 28 29 29 30 31 31 32 33 33 35 34 32 33 34 33 32 32 33 34 33 31 31 34 34 32 31 31 31 31 30 28 28 28 26 25 23 22 24 25 25 26
23 24 24 25 25 25 24 22 22 22 23 23 23 23 22 22 21 21 21 22 23 24 27 28 27 29 30 31 32 32 32 33 34 34 33 31 30 31 32 33 34 34 34 33 34 34 33 32 32 32 33 32 31 32 31 28 26 25 25 27 28 26 26
27 27 27 27 27 27 26 24 23 23 23 24 24 24 24 24 24 24 24 25 24 25 27 27 26 28 29 30 31 32 32 32 33 33 32 32 33 34 34 35 36 35 35 35 34 34 34 33 33 34 34 34 34 33 31 29 27 27 27 28 28 25 23
30 30 30 29 29 28 28 26 25 24 24 25 25 25 25 25 25 25 25 26 26 26 28 27 27 28 28 28 29 31 33 33 33 33 33 34 37 37 35 36 36 37 37 37 36 35 34 34 35 36 36 36 35 33 32 30 28 28 28 28 28 25 24
31 31 31 30 30 30 29 28 27 26 26 26 26 26 26 26 26 26 26 27 27 27 28 28 28 28 28 28 28 29 32 35 35 36 35 35 36 35 35 36 36 37 37 38 39 38 36 35 36 37 38 38 36 35 33 32 31 32 31 30 29 27 27
31 31 31 31 30 30 30 30 29 29 28 28 28 28 28 27 27 27 27 27 27 27 27 28 29 29 28 28 28 28 31 35 36 36 36 38 38 37 37 36 34 34 35 36 39 40 40 38 37 36 36 38 37 35 32 32 34 34 33 32 31 29 29
33 32 32 32 32 31 31 31 31 31 30 29 29 29 29 29 28 28 28 28 28 28 28 27 29 30 29 28 28 29 31 34 35 34 36 40 42 42 40 37 33 34 37 38 40 42 42 42 40 37 35 36 37 35 33 34 36 36 33 31 30 30 32
36 36 35 34 34 34 33 33 33 33 33 32 31 30 30 30 30 29 29 29 28 29 29 29 29 30 30 29 28 29 31 33 34 35 38 42 43 42 41 40 39 39 40 40 43 44 43 42 41 38 35 36 38 37 36 38 38 36 34 31 29 31 34
39 38 37 36 36 36 36 36 35 35 35 35 35 34 32 32 31 31 31 31 31 30 30 30 31 31 30 30 28 29 31 34 36 38 40 43 45 44 41 41 42 42 42 41 42 42 42 42 41 38 36 37 38 37 37 38 37 36 35 34 33 36 39
40 39 39 38 37 36 36 37 37 37 37 37 37 37 36 35 34 33 33 34 33 32 31 31 32 32 32 32 31 30 30 31 33 37 40 44 46 46 45 45 44 44 44 42 41 41 41 41 40 39 38 39 38 38 38 38 37 37 37 37 38 40 41
42 42 41 40 38 37 37 37 37 37 38 38 38 38 38 38 37 36 35 34 34 33 32 31 32 33 33 34 34 33 31 29 28 31 38 44 47 47 47 46 46 45 44 43 41 41 41 41 41 40 40 39 37 38 39 39 39 39 39 39 39 41 41
46 46 45 44 43 42 41 40 39 38 38 38 38 39 39 39 39 38 37 35 34 34 33 32 32 32 33 33 32 32 32 31 29 29 33 40 48 50 48 47 46 44 43 43 42 41 40 40 41 41 41 40 39 39 40 41 41 40 40 40 40 41 41
49 50 50 49 48 48 47 45 44 42 41 40 40 39 39 39 39 39 39 38 36 35 35 33 32 32 32 31 30 30 30 30 29 29 31 35 43 48 48 48 47 45 44 43 42 40 40 40 41 42 42 42 41 41 41 41 41 41 40 40 40 40 41
51 52 53 52 52 51 50 48 47 45 44 43 42 41 40 40 40 40 40 39 38 37 36 35 34 33 32 30 29 29 30 29 28 28 28 31 39 46 47 46 47 46 44 41 37 36 38 41 42 42 43 43 42 41 42 43 42 41 41 41 41 42 43
Wind_Direction
293 292 291 291 289 286 283 279 278 277 277 276 276 278 275 265 258 253 251 254 257 256 255 252 248 247 247 245 245 249 252 251 247 243 240 238 240 244 246 247 250 253 255 258 259 261 264 266 268 271 272 277 281 282 282 281 283 288 290 290 293 296 293
294 293 292 291 290 288 285 281 278 276 275 276 277 279 277 265 254 251 251 251 257 259 257 252 246 245 246 244 244 247 250 250 245 239 236 237 241 242 243 247 251 254 255 258 259 259 262 263 265 268 270 275 278 278 279 279 280 283 286 287 287 289 290
293 292 290 289 288 286 286 284 280 275 274 275 275 278 276 263 251 251 249 250 257 259 256 253 247 244 245 243 240 242 245 245 238 233 237 243 242 236 238 245 249 252 254 254 254 256 258 261 263 265 268 273 276 276 276 276 278 281 283 285 284 285 288
293 292 290 289 287 285 285 285 282 277 273 273 276 278 273 260 253 251 248 251 257 257 255 254 249 245 243 240 238 240 245 246 241 242 249 250 242 236 240 247 249 252 253 252 252 255 257 259 262 264 269 272 273 274 273 273 275 278 280 281 281 282 285
295 293 291 290 289 287 286 284 282 277 272 272 278 282 272 259 255 252 250 254 258 257 253 251 250 246 242 240 239 243 247 246 248 253 252 246 241 239 244 249 251 252 252 252 253 255 257 259 261 265 270 273 272 270 269 269 271 275 276 276 277 279 281
296 293 291 290 290 290 289 285 281 276 273 272 273 280 276 262 255 251 252 256 258 256 253 251 251 247 243 240 238 241 246 246 250 253 249 245 244 241 244 249 251 251 252 254 254 256 258 260 262 267 271 272 271 268 266 265 267 271 273 273 275 277 280
297 294 292 291 291 292 292 290 281 272 272 272 269 272 277 272 259 252 252 255 255 255 254 252 251 249 248 244 236 236 243 244 247 250 249 247 245 242 244 249 250 251 254 256 256 258 261 263 266 270 272 272 269 266 265 264 266 269 269 270 273 276 280
296 295 294 292 291 291 291 292 288 277 270 270 270 270 272 274 269 259 254 254 252 253 255 253 250 250 250 246 240 238 239 238 242 249 249 245 243 244 247 249 250 253 256 257 257 259 262 267 270 269 270 271 269 265 262 262 263 266 269 271 273 276 279
293 294 294 294 292 290 289 288 289 286 276 269 270 272 270 269 272 268 260 257 255 253 255 252 248 248 247 243 243 243 239 239 245 250 248 244 244 248 250 250 252 255 257 257 257 261 265 269 271 270 268 266 265 264 261 260 261 263 268 271 271 274 277
292 292 294 295 294 291 288 283 281 285 283 273 268 269 268 267 269 269 265 262 262 257 254 252 250 248 244 242 242 241 240 244 247 246 244 243 245 247 249 251 253 255 257 259 260 264 268 268 270 271 267 262 260 261 260 260 260 262 266 269 270 274 277
291 292 293 294 293 291 288 283 281 282 282 278 271 266 265 265 264 265 264 264 266 263 255 253 253 249 243 242 241 238 242 247 246 243 242 242 244 246 247 249 252 254 256 259 262 265 268 269 270 268 262 258 257 258 260 261 262 264 267 269 271 273 276
291 292 293 292 292 290 287 286 286 284 279 276 274 267 263 262 262 262 263 262 266 267 259 253 253 251 246 242 240 239 242 246 243 240 239 240 242 244 247 250 252 253 254 257 260 263 265 268 268 264 259 257 255 255 258 261 263 264 266 270 271 271 274
293 294 293 293 292 290 288 288 290 290 283 272 268 265 262 260 261 262 262 261 263 267 262 255 253 253 249 244 242 242 244 244 240 237 235 236 242 247 249 252 253 254 254 256 258 260 263 265 264 261 259 258 256 255 257 260 261 263 267 269 269 270 273
294 294 294 294 294 294 293 291 289 289 284 273 265 264 262 261 261 263 262 260 261 264 262 257 255 255 252 246 243 243 245 245 240 236 234 236 245 252 252 252 253 253 254 254 257 260 262 263 262 259 256 255 256 257 258 260 261 263 266 267 268 270 272
293 294 295 296 298 299 298 296 293 287 282 275 269 263 259 257 257 259 260 257 258 261 260 257 256 256 255 250 246 245 244 242 239 238 238 241 250 254 251 251 252 252 253 255 258 263 264 262 260 257 254 254 255 257 259 260 260 262 265 267 270 272 272
293 295 298 301 303 304 302 300 296 286 276 272 270 264 256 252 251 251 252 252 254 257 260 260 257 256 257 253 250 247 243 240 241 242 242 244 250 251 250 252 254 254 256 258 260 263 262 260 258 256 255 256 256 258 260 261 262 263 265 268 270 271 271
295 297 301 305 308 310 308 306 298 284 270 264 264 260 256 254 251 248 248 249 254 257 261 263 259 255 255 253 250 248 245 243 243 244 243 241 244 248 250 253 255 256 258 258 257 257 256 255 256 258 260 259 258 259 260 262 264 266 266 268 269 271 272
298 300 303 308 314 315 315 314 305 285 269 261 258 255 253 253 252 250 247 247 254 260 261 263 260 254 251 250 249 246 246 246 244 243 243 238 240 248 252 254 256 258 260 258 254 253 253 254 256 258 260 260 260 260 261 263 265 266 267 268 269 270 271
300 303 306 310 315 317 317 316 311 291 269 260 258 256 255 255 253 251 247 246 251 255 256 259 260 255 252 252 250 246 244 244 244 244 241 236 240 249 254 256 257 259 260 256 251 251 254 257 259 260 259 260 260 260 261 263 266 267 268 268 269 269 269
301 304 308 311 314 317 316 315 315 307 288 271 264 259 258 257 255 251 248 247 249 251 255 258 258 258 257 254 252 249 245 242 243 245 241 236 241 250 253 254 256 257 257 253 252 257 261 261 262 259 257 258 259 259 259 260 264 267 267 266 267 267 268
301 304 308 312 315 317 318 317 316 314 310 303 293 279 264 258 258 256 250 248 249 252 256 259 258 257 257 254 251 249 247 245 244 245 244 241 243 248 251 252 253 255 253 249 250 256 259 258 256 253 251 250 250 252 255 258 262 265 265 264 264 266 268
298 302 306 309 313 316 317 317 316 313 312 309 305 300 285 271 270 272 261 252 251 253 254 255 257 257 256 253 249 247 248 248 247 248 249 248 248 249 250 252 252 250 247 248 252 254 253 252 250 249 250 251 249 249 254 260 266 268 268 266 264 265 267
294 298 302 305 308 312 313 313 313 310 308 305 301 299 295 288 283 281 274 263 260 258 256 256 259 260 258 254 249 247 247 249 250 251 251 250 250 250 251 252 252 249 245 248 254 254 253 252 250 249 250 252 252 253 258 265 270 271 270 268 268 268 268
288 292 297 300 302 305 307 308 308 306 304 301 299 296 294 293 289 284 280 278 273 266 262 261 262 262 260 257 253 248 247 248 249 250 250 249 249 253 254 253 253 252 250 250 253 253 252 251 251 251 251 250 251 256 263 268 269 266 263 263 267 270 270
282 287 291 294 297 298 300 301 302 301 299 297 295 294 293 291 290 286 283 284 282 275 271 269 267 265 263 259 254 249 246 246 245 247 250 250 250 255 257 255 253 254 254 254 252 252 252 250 250 252 253 252 252 255 260 264 264 261 259 261 265 269 269
280 283 286 288 291 292 292 293 294 294 295 293 291 290 289 289 288 287 285 286 285 281 280 278 273 270 267 263 256 250 246 245 243 244 247 248 249 253 255 254 253 252 252 252 249 249 251 251 249 249 252 253 254 256 259 262 263 262 262 263 263 263 262
281 282 283 284 285 285 286 286 286 286 287 288 288 286 286 285 285 285 285 286 286 285 285 283 278 275 272 268 261 253 249 246 242 242 245 246 248 251 252 252 251 249 249 249 248 248 250 251 249 248 249 251 253 255 258 261 263 262 260 260 257 254 251
282 283 283 284 283 282 281 281 281 280 281 282 283 284 283 283 282 283 283 284 285 285 286 286 284 280 274 269 265 259 254 249 246 245 247 249 249 249 250 251 250 249 249 249 248 247 248 251 253 251 250 251 252 254 257 259 261 259 257 257 256 254 251
282 282 283 284 283 281 279 279 278 278 277 277 278 280 280 280 280 281 282 282 282 284 285 286 285 281 275 269 267 265 259 253 248 247 248 251 252 250 251 253 252 251 250 247 246 247 247 250 255 256 253 250 250 252 255 258 259 258 257 258 257 253 251
281 282 282 282 282 281 279 278 277 277 277 276 276 276 277 277 277 278 280 281 282 283 284 284 282 280 276 270 266 266 263 256 250 247 248 249 250 250 249 249 247 245 245 244 245 247 249 250 254 256 253 249 247 247 248 250 254 256 257 259 257 251 246
280 280 280 280 280 280 280 278 277 277 277 277 276 275 274 275 276 277 279 281 282 283 284 283 282 281 279 274 269 267 266 260 254 251 249 247 246 245 245 244 243 241 242 244 245 247 249 250 251 252 250 247 247 246 243 245 251 255 258 259 256 252 252
280 280 280 279 279 278 278 277 276 276 277 277 277 276 275 274 274 275 278 280 282 283 283 283 283 282 281 276 271 267 267 266 263 259 253 245 242 242 243 244 245 243 243 245 247 247 248 249 249 249 247 246 248 247 243 244 248 253 255 254 251 253 258
282 282 281 280 279 278 277 276 276 275 275 275 276 276 276 275 274 274 276 278 280 280 281 281 281 282 281 278 274 271 269 270 269 263 251 242 241 244 244 245 246 246 246 247 249 248 249 248 247 246 246 247 249 248 244 243 247 250 251 251 250 253 256
283 283 283 282 281 280 278 277 276 276 276 275 275 275 276 276 276 276 275 276 277 278 278 278 279 281 282 281 281 280 277 277 280 272 257 247 244 244 244 245 247 248 247 248 248 248 248 247 246 245 246 248 249 248 246 245 247 249 250 249 248 249 252
283 283 283 283 283 282 281 280 278 277 277 276 275 274 274 275 276 277 277 276 276 276 275 275 276 277 280 281 283 284 282 281 284 284 274 259 250 246 245 245 246 247 248 247 247 248 248 247 246 246 246 247 247 247 246 245 247 249 250 249 247 248 251
281 283 283 283 283 283 283 282 281 279 278 277 276 275 274 274 274 275 276 277 276 275 275 274 274 274 276 277 280 282 284 283 282 284 284 274 261 253 250 248 246 246 247 247 247 247 248 247 246 245 246 246 246 247 246 246 247 249 249 249 249 250 252
281 282 283 284 284 284 284 283 283 281 280 278 277 275 274 273 272 272 273 275 275 275 274 274 273 273 273 273 274 277 280 282 281 282 284 280 268 259 255 254 252 249 247 248 248 248 248 248 247 244 244 244 246 247 246 243 244 247 249 251 251 252 254